Regional Weather Roundup
Issued by NWS State College, PA

Home | Current Version | Previous Version | Graphics & Text | Print | Product List | Glossary On
Versions: 1 2 3 4 5 6 7 8 9 10 11 12 13 14 15 16 17 18 19 20 21 22 23 24 25 26 27 28 29 30 31 32 33 34 35 36 37 38 39 40 41 42 43 44 45 46 47 48 49 50
000
ASUS41 KCTP 301803
RWRCTP

REGIONAL WEATHER ROUNDUP
NATIONAL WEATHER SERVICE STATE COLLEGE PA
200 PM EDT SUN AUG 30 2015

Note: "fair" indicates few or no clouds below 12,000 feet with no
significant weather and/or obstructions to visibility.

* = STATION THAT DOES NOT REPORT PRECIPITATION /E.G. RAIN...SNOW...ETC/
    THUNDER OR FOG.

PAZ002>004-007>009-013>016-020>023-029>032-301900-
WESTERN PENNSYLVANIA

CITY           SKY/WX    TMP DP  RH WIND       PRES   REMARKS
ERIE           MOSUNNY   76  65  68 NW12      30.09F
MEADVILLE      MOSUNNY   76  65  68 SW5       30.12F
FRANKLIN*      MOSUNNY   75  64  69 W6        30.15S
NEW CASTLE     FAIR      80  71  74 CALM      30.12F
BEAVER COUNTY  NOT AVBL
BUTLER*        MOSUNNY   79  66  65 CALM      30.14F
PITTSBURGH INT PTSUNNY   81  64  56 VRB6      30.12F
PITTSBURGH     PTSUNNY   82  60  47 W5        30.12F
INDIANA*       PTSUNNY   81  64  57 W8        30.16F
LATROBE        MOSUNNY   82  64  54 W12       30.14F
WASHINGTON CO* PTSUNNY   81  64  57 W8        30.14S
$$

PAZ004>006-010>012-017>019-024>028-033>037-041-042-045-046-049>053-301900-
CENTRAL PENNSYLVANIA

CITY           SKY/WX    TMP DP  RH WIND       PRES   REMARKS
BRADFORD       PTSUNNY   76  61  59 VRB6      30.14F
DUBOIS         PTSUNNY   79  62  56 W12       30.14F
CLEARFIELD     PTSUNNY   79  62  56 SW7       30.13F
JOHNSTOWN      PTSUNNY   80  60  50 W10       30.17F
ALTOONA        CLOUDY    85  60  42 SW10G17   30.13F
STATE COLLEGE  MOSUNNY   81  66  61 W5        30.11F
WILLIAMSPORT   PTSUNNY   81  64  56 CALM      30.06F
SELINSGROVE    PTSUNNY   82  67  60 CALM      30.08F
FT INDIANTOWN  PTSUNNY   86  67  53 S5        30.08F
CAPITAL CITY   PTSUNNY   86  65  49 S6        30.08F
HARRISBURG     PTSUNNY   86  68  54 SE5       30.07F
YORK           PTSUNNY   85  69  58 CALM      30.09F
$$

PAZ038>040-043-044-047-048-054-055-060>062-067>071-301900-
EASTERN PENNSYLVANIA

CITY           SKY/WX    TMP DP  RH WIND       PRES   REMARKS
SCRANTON       PTSUNNY   84  64  50 VRB7G18   30.08F
MOUNT POCONO   PTSUNNY   79  63  57 W8        30.15S
ALLENTOWN      MOSUNNY   87  66  49 SW6       30.07F
QUAKERTOWN*    CLEAR     86  66  51 SW7       30.09F
READING        MOSUNNY   86  67  52 CALM      30.06F
LANCASTER      PTSUNNY   85  66  53 W6        30.08F
COATESVILLE    MOCLDY    84  68  58 SW3       30.11F
POTTSTOWN      MOSUNNY   85  67  54 S6        30.09F
BLUE BELL      MOSUNNY   88  68  51 SW3       30.07F
DOYLESTOWN     MOSUNNY   85  64  49 SW8       30.07F
WILLOW GROVE   NOT AVBL
NORTH PHILA    MOSUNNY   89  62  40 VRB7      30.08F
PHILADELPHIA   PTSUNNY   88  64  44 SW10      30.08F
$$


USA.gov is the U.S. government's official web portal to all federal, state and local government web resources and services.